Change the Weather History Date:

Thursday, February 13, 2014

  Actual Average Record
Temperature  
Mean Temperature 36 °F -  
Max Temperature 41 °F 58 °F 60 °F (2011)
Min Temperature 32 °F 33 °F 17 °F (2012)
Degree Days  
Heating Degree Days 28    
Moisture  
Dew Point 37 °F    
Average Humidity 98    
Maximum Humidity 100    
Minimum Humidity 93    
Precipitation  
Precipitation 0.00 in - - ()
Sea Level Pressure  
Sea Level Pressure 29.70 in    
Wind  
Wind Speed 4 mph (WSW)    
Max Wind Speed 12 mph    
Max Gust Speed -    
Visibility 5 miles    
Events Rain    
Averages and records for this station are not official NWS values.
T = Trace of Precipitation, MM = Missing Value Source: NWS Daily Summary

Daily Weather History Graph

Daily Weather History Graph

Search for Another Location

Airport or City:

Trip Planner

Search our weather history database for the weather conditions in past years. The results will help you decide how hot, cold, wet, or windy it might be!

Date:

Astronomy

Feb. 13, 2014 Rise Set
Actual Time 7:08 AM EST 6:03 PM EST
Civil Twilight 6:42 AM EST 6:29 PM EST
Nautical Twilight 6:13 AM EST 6:58 PM EST
Astronomical Twilight 5:43 AM EST 7:27 PM EST
Moon 5:10 PM EST (2/13) 5:59 AM EST (2/13)
Length of Visible Light 11h 46m
Length of Day
10h 55m
Waxing Gibbous, 98% of the Moon is Illuminated
Feb 13
Waxing Gibbous
Feb 14
Full
Feb 22
Last Quarter
Mar 1
New
Mar 8
First Quarter

Hourly Weather History & Observations

Time (EST) Temp. Windchill Dew Point Humidity Pressure Visibility Wind Dir Wind Speed Gust Speed Precip Events Conditions
12:15 AM 32.0 °F - 32.0 °F 100% 29.75 in 1.8 mi Calm Calm - N/A   Overcast
12:35 AM 32.0 °F - 32.0 °F 100% 29.76 in 1.5 mi Calm Calm - N/A Rain Light Rain
12:55 AM 33.8 °F - 32.0 °F 93% 29.75 in 2.5 mi Calm Calm - N/A Rain Light Rain
1:15 AM 33.8 °F - 32.0 °F 93% 29.74 in 2.0 mi Calm Calm - N/A   Overcast
1:35 AM 33.8 °F - 32.0 °F 93% 29.72 in 3.0 mi Calm Calm - N/A Rain Rain
1:55 AM 33.8 °F - 32.0 °F 93% 29.71 in 5.0 mi Calm Calm - N/A Rain Light Rain
2:15 AM 35.6 °F - 35.6 °F 100% 29.70 in - Calm Calm - N/A Rain Rain
2:35 AM 35.6 °F - 35.6 °F 100% 29.67 in 6.0 mi Calm Calm - N/A Rain Light Rain
2:55 AM 35.6 °F - 35.6 °F 100% 29.66 in 10.0 mi Calm Calm - N/A   Overcast
3:15 AM 35.6 °F - 35.6 °F 100% 29.66 in 10.0 mi Calm Calm - N/A   Overcast
3:35 AM - - - N/A% - - North - - N/A   Unknown
3:55 AM - - - N/A% - - North - - N/A   Unknown
4:15 AM - - - N/A% - - North - - N/A   Unknown
1:35 PM 37.4 °F - 37.4 °F 100% 29.61 in - Calm Calm - N/A   Unknown
1:55 PM 37.4 °F - 37.4 °F 100% 29.60 in 6.0 mi Calm Calm - N/A   Mist
2:35 PM 39.2 °F 33.6 °F 37.4 °F 93% 29.61 in 8.0 mi WSW 8.1 mph - N/A   Unknown
2:55 PM 39.2 °F 34.2 °F 37.4 °F 93% 29.61 in 7.0 mi West 6.9 mph - N/A   Unknown
3:15 PM 39.2 °F 32.5 °F 37.4 °F 93% 29.61 in 7.0 mi WSW 10.4 mph - N/A   Unknown
3:35 PM 39.2 °F 33.0 °F 37.4 °F 93% 29.62 in 6.0 mi WSW 9.2 mph - N/A   Mist
3:55 PM 39.2 °F 33.0 °F 39.2 °F 100% 29.61 in 5.0 mi WSW 9.2 mph - N/A   Mist
4:15 PM 39.2 °F 32.0 °F 39.2 °F 100% 29.61 in 5.0 mi WSW 11.5 mph - N/A   Mist
4:35 PM 39.2 °F 33.0 °F 39.2 °F 100% 29.63 in 5.0 mi WSW 9.2 mph - N/A   Overcast
4:55 PM 39.2 °F 33.0 °F 39.2 °F 100% 29.64 in 5.0 mi WSW 9.2 mph - N/A   Overcast
5:15 PM 41.0 °F 36.4 °F 39.2 °F 93% 29.64 in 6.0 mi West 6.9 mph - N/A   Scattered Clouds
5:35 PM 41.0 °F 35.8 °F 39.2 °F 93% 29.65 in 6.0 mi SW 8.1 mph - N/A   Clear
5:55 PM 39.2 °F 33.0 °F 39.2 °F 100% 29.66 in 4.0 mi SW 9.2 mph - N/A   Clear
6:15 PM 39.2 °F 33.0 °F 39.2 °F 100% 29.67 in 2.5 mi SW 9.2 mph - N/A   Clear
6:35 PM 39.2 °F 32.5 °F 39.2 °F 100% 29.68 in 2.5 mi WSW 10.4 mph - N/A   Clear
6:55 PM 39.2 °F 32.0 °F 39.2 °F 100% 29.69 in 3.0 mi WSW 11.5 mph - N/A   Clear
7:15 PM 39.2 °F 32.0 °F 39.2 °F 100% 29.70 in 3.0 mi WSW 11.5 mph - N/A   Clear
7:35 PM 39.2 °F 33.6 °F 39.2 °F 100% 29.71 in 3.0 mi WSW 8.1 mph - N/A   Clear
7:55 PM 39.2 °F 33.0 °F 39.2 °F 100% 29.72 in 3.0 mi WSW 9.2 mph - N/A   Clear
8:15 PM 39.2 °F 33.6 °F 39.2 °F 100% 29.73 in 3.0 mi WSW 8.1 mph - N/A   Clear
8:35 PM 39.2 °F 34.2 °F 39.2 °F 100% 29.74 in 3.0 mi WSW 6.9 mph - N/A   Clear
8:55 PM 39.2 °F 35.0 °F 39.2 °F 100% 29.75 in 3.0 mi West 5.8 mph - N/A   Clear
9:15 PM 39.2 °F 35.9 °F 39.2 °F 100% 29.75 in 4.0 mi West 4.6 mph - N/A   Clear
9:35 PM 41.0 °F 36.4 °F 39.2 °F 93% 29.76 in 5.0 mi WSW 6.9 mph - N/A   Clear
9:55 PM 41.0 °F 36.4 °F 39.2 °F 93% 29.77 in 6.0 mi WSW 6.9 mph - N/A   Clear
10:15 PM 39.2 °F 35.9 °F 39.2 °F 100% 29.78 in 6.0 mi WSW 4.6 mph - N/A   Clear
10:35 PM 39.2 °F 34.2 °F 39.2 °F 100% 29.79 in 6.0 mi WSW 6.9 mph - N/A   Clear
10:55 PM 39.2 °F 34.2 °F 39.2 °F 100% 29.79 in 7.0 mi WSW 6.9 mph - N/A   Clear
11:15 PM 39.2 °F 34.2 °F 37.4 °F 93% 29.79 in 7.0 mi WSW 6.9 mph - N/A   Clear
11:35 PM 37.4 °F 32.8 °F 37.4 °F 100% 29.79 in 7.0 mi WSW 5.8 mph - N/A   Clear
11:55 PM 37.4 °F 32.1 °F 37.4 °F 100% 29.79 in 7.0 mi SW 6.9 mph - N/A   Clear